FW7322 Weather Reports


time (UTC)temp
C
wind
direction
speed
KPH
gust
KPH
rain 1hr
cm
rain 24hr
cm
rain mn
cm
humidity
%
barometer
mb
20260510011625 11 92 0.0 1.6 0.00 0.91 0.89 89 1033.5
20260510011024 11 92 0.0 0.0 0.00 0.91 0.89 89 1033.4
20260510010523 11 92 0.0 0.0 0.00 0.91 0.89 89 1033.4
20260510010023 11 92 0.0 0.0 0.00 0.91 0.89 89 1033.3
20260510005523 11 93 0.0 0.0 0.00 0.91 0.89 88 1033.1
20260510005022 11 92 0.0 0.0 0.00 0.91 0.89 88 1033.1
20260510004522 11 92 0.0 1.6 0.00 0.91 0.89 88 1032.9
20260510004022 12 92 0.0 1.6 0.00 0.91 0.89 87 1033.0
20260510003522 12 92 0.0 1.6 0.00 0.91 0.89 87 1033.0
20260510003029 12 92 0.0 1.6 0.00 0.91 0.89 87 1032.9
20260510002522 12 92 0.0 1.6 0.00 0.91 0.89 87 1032.9
20260510002021 12 92 0.0 1.6 0.00 0.91 0.89 86 1032.8
20260510001522 12 92 0.0 4.8 0.00 0.91 0.89 86 1032.7
20260510001021 13 92 0.0 4.8 0.00 0.91 0.89 85 1032.8
20260510000521 13 101 0.0 0.0 0.00 0.91 0.89 85 1032.6
20260510000022 13 101 0.0 1.6 0.00 0.91 0.89 85 1032.6
20260509235521 13 101 0.0 1.6 0.00 0.94 0.89 84 1032.6
20260509235021 14 100 0.0 0.0 0.00 0.94 0.89 84 1032.4
20260509234532 14 100 0.0 0.0 0.00 0.94 0.89 83 1032.4
20260509234020 15 103 0.0 0.0 0.00 0.94 0.89 82 1032.3
20260509233519 15 103 0.0 1.6 0.00 0.94 0.89 82 1032.5
20260509233020 15 103 0.0 3.2 0.00 0.94 0.89 81 1032.3
20260509232521 15 102 0.0 6.4 0.00 0.94 0.89 81 1032.3
20260509232019 15 255 0.0 6.4 0.00 0.94 0.89 82 1032.3
20260509231519 15 89 0.0 0.0 0.00 0.94 0.89 83 1032.3
20260509231018 15 89 0.0 0.0 0.00 0.94 0.89 82 1032.3
20260509230518 15 89 0.0 0.0 0.00 0.94 0.89 82 1032.4
20260509230017 15 89 0.0 1.6 0.00 0.94 0.89 83 1032.4
20260509225517 15 89 0.0 6.4 0.00 0.99 0.89 83 1032.4
20260509225016 15 82 0.0 6.4 0.00 0.99 0.89 84 1032.5
20260509224516 15 80 0.0 6.4 0.00 0.99 0.89 84 1032.5
20260509224016 15 93 0.0 6.4 0.00 0.99 0.89 84 1032.5
20260509223519 15 106 0.0 8.0 0.00 0.99 0.89 84 1032.3
20260509223017 15 84 1.6 8.0 0.00 0.99 0.89 83 1032.5
20260509222515 15 81 0.0 8.0 0.00 0.99 0.89 83 1032.5
20260509222015 15 68 1.6 6.4 0.00 0.99 0.89 83 1032.5
20260509221515 15 96 0.0 6.4 0.00 0.99 0.89 84 1032.4
20260509221014 15 99 0.0 6.4 0.00 0.99 0.89 85 1032.6
20260509220513 15 77 3.2 6.4 0.00 0.99 0.89 83 1032.6
20260509220014 15 124 0.0 3.2 0.00 0.99 0.89 86 1032.7
20260509215513 15 115 0.0 6.4 0.00 0.99 0.89 86 1032.8
20260509215010 14 91 0.0 6.4 0.00 0.99 0.89 85 1032.8
20260509214510 14 94 0.0 4.8 0.00 0.99 0.89 86 1032.8
20260509214014 14 105 0.0 6.4 0.00 0.99 0.89 86 1032.7
20260509213510 14 82 0.0 6.4 0.00 0.99 0.89 86 1032.8
20260509213009 14 79 1.6 4.8 0.00 0.99 0.89 86 1032.7
20260509212507 14 85 0.0 4.8 0.00 0.99 0.89 88 1032.8
20260509212006 13 86 1.6 4.8 0.00 0.99 0.89 89 1032.8
20260509211504 13 115 0.0 3.2 0.00 0.99 0.89 89 1033.0
20260509211003 13 82 0.0 3.2 0.00 0.99 0.89 89 1033.0
20260509210503 13 142 0.0 4.8 0.00 0.99 0.89 89 1033.0
20260509210002 13 83 0.0 4.8 0.03 0.99 0.89 89 1033.2
20260509205501 13 82 1.6 4.8 0.03 0.99 0.89 89 1033.2
20260509205100 13 91 0.0 6.4 0.03 0.99 0.89 90 1033.3
20260509204604 13 86 1.6 6.4 0.03 0.99 0.89 90 1033.3
20260509204101 13 96 0.0 6.4 0.03 0.99 0.89 90 1033.4
20260509203600 13 97 0.0 4.8 0.03 0.99 0.89 90 1033.3
20260509203100 13 72 0.0 4.8 0.03 0.99 0.89 91 1033.3
20260509202558 13 93 0.0 4.8 0.03 0.99 0.89 91 1033.3
20260509202058 12 101 0.0 4.8 0.03 0.99 0.89 91 1033.4
20260509201557 12 91 0.0 3.2 0.03 0.99 0.89 91 1033.5
20260509201056 12 79 0.0 1.6 0.03 0.99 0.89 91 1033.7
20260509200557 12 97 0.0 4.8 0.05 0.99 0.89 91 1033.6
20260509200108 12 94 1.6 6.4 0.03 0.97 0.86 91 1033.6
20260509195556 12 86 0.0 6.4 0.05 1.04 0.86 91 1033.7
20260509195055 12 80 1.6 4.8 0.05 1.04 0.86 91 1033.6
20260509194556 12 74 1.6 6.4 0.05 1.04 0.86 91 1033.7
20260509194056 12 103 0.0 6.4 0.05 1.04 0.86 92 1033.8
20260509193555 12 91 0.0 6.4 0.05 1.04 0.86 93 1033.8
20260509193055 12 73 1.6 6.4 0.08 1.04 0.86 93 1033.6
20260509192555 12 96 0.0 0.0 0.10 1.04 0.86 93 1033.7
20260509192052 12 258 0.0 1.6 0.13 1.04 0.86 93 1033.7
20260509191552 11 259 0.0 4.8 0.15 1.04 0.86 92 1033.6
20260509191053 11 270 0.0 4.8 0.20 1.04 0.86 92 1033.7
20260509190551 11 99 0.0 3.2 0.20 1.02 0.84 92 1033.8
20260509190057 11 85 0.0 6.4 0.23 1.02 0.84 92 1033.9
20260509185550 11 329 0.0 6.4 0.23 0.99 0.81 92 1034.0
20260509184631 11 90 0.0 4.8 0.25 0.99 0.81 92 1034.1
20260509184052 11 92 0.0 4.8 0.28 0.99 0.81 92 1034.2
20260509183548 11 94 0.0 6.4 0.28 0.97 0.79 92 1034.1
20260509183050 11 95 0.0 6.4 0.28 0.97 0.79 92 1034.2
20260509182547 11 99 0.0 11.3 0.28 0.94 0.76 92 1034.3
20260509182047 11 60 1.6 11.3 0.28 0.91 0.71 92 1034.4
20260509181549 11 95 0.0 8.0 0.25 0.89 0.71 92 1034.3
20260509181046 11 88 1.6 8.0 0.20 0.84 0.66 92 1034.4
20260509180547 11 84 0.0 4.8 0.20 0.81 0.64 92 1034.4
20260509180046 11 243 1.6 8.0 0.18 0.79 0.61 92 1034.3
20260509175546 11 114 0.0 9.7 0.18 0.76 0.58 92 1034.2
20260509175046 11 76 3.2 9.7 0.15 0.71 0.56 91 1034.3
20260509174548 11 101 1.6 9.7 0.18 0.71 0.56 92 1034.2
20260509174046 11 86 0.0 9.7 0.15 0.71 0.53 92 1034.2
20260509173545 11 262 0.0 9.7 0.13 0.69 0.51 92 1034.2
20260509173047 11 86 0.0 8.0 0.13 0.66 0.48 91 1034.3
20260509172545 11 86 0.0 8.0 0.15 0.66 0.48 92 1034.2
20260509172046 11 77 1.6 8.0 0.15 0.64 0.46 92 1034.4
20260509171545 11 73 0.0 6.4 0.15 0.64 0.46 92 1034.3
20260509171047 11 103 0.0 6.4 0.18 0.64 0.46 92 1034.3
20260509170548 11 219 0.0 8.0 0.18 0.61 0.43 92 1034.2
20260509170043 11 115 1.6 9.7 0.20 0.61 0.43 91 1034.2
20260509165543 11 217 1.6 9.7 0.18 0.58 0.41 91 1034.2
20260509165043 11 87 0.0 9.7 0.20 0.58 0.41 91 1034.2
20260509164543 11 103 0.0 4.8 0.18 0.56 0.38 92 1034.3
20260509164045 11 264 1.6 6.4 0.18 0.56 0.38 91 1034.3
20260509163542 11 114 0.0 6.4 0.20 0.56 0.38 91 1034.3
20260509163101 11 99 0.0 6.4 0.18 0.53 0.36 91 1034.3
20260509162546 11 104 0.0 8.0 0.15 0.51 0.33 91 1034.5
20260509162043 11 108 0.0 8.0 0.13 0.48 0.30 91 1034.4
20260509161542 11 81 0.0 11.3 0.13 0.48 0.30 91 1034.5
20260509161045 11 98 4.8 11.3 0.13 0.46 0.28 91 1034.6
20260509160541 11 94 1.6 8.0 0.10 0.43 0.25 91 1034.5
20260509160041 11 73 1.6 8.0 0.08 0.41 0.23 91 1034.6
20260509155543 11 95 0.0 8.0 0.10 0.41 0.23 91 1034.6
20260509155040 12 82 0.0 6.4 0.08 0.38 0.20 91 1034.6
20260509154545 12 81 1.6 6.4 0.08 0.38 0.20 91 1034.7
20260509154042 12 235 0.0 3.2 0.10 0.38 0.20 92 1034.6
20260509153540 12 96 0.0 1.6 0.08 0.36 0.18 92 1034.7
20260509153040 12 96 0.0 4.8 0.08 0.36 0.18 92 1034.6
20260509152539 11 96 0.0 4.8 0.08 0.36 0.18 92 1034.6
20260509152039 12 259 0.0 3.2 0.08 0.36 0.18 93 1034.5
20260509151538 11 259 0.0 3.2 0.08 0.36 0.18 92 1034.6
20260509151041 11 98 0.0 0.0 0.05 0.33 0.15 93 1034.7
20260509150536 11 94 0.0 0.0 0.05 0.33 0.15 93 1034.7
20260509150036 11 94 0.0 0.0 0.05 0.33 0.15 93 1034.6
20260509145536 11 94 0.0 0.0 0.03 0.30 0.13 93 1034.7
20260509145037 11 94 0.0 0.0 0.05 0.30 0.13 94 1034.8
20260509144538 11 94 0.0 0.0 0.05 0.30 0.13 93 1034.7
20260509144037 11 94 0.0 0.0 0.03 0.28 0.10 93 1034.9
20260509143534 11 94 0.0 0.0 0.03 0.28 0.10 94 1034.9
20260509143044 11 94 0.0 0.0 0.03 0.28 0.10 93 1034.9
20260509142533 11 95 0.0 0.0 0.03 0.28 0.10 93 1034.7
20260509142036 11 95 0.0 0.0 0.05 0.28 0.10 93 1034.6
20260509141540 11 95 0.0 0.0 0.05 0.28 0.10 93 1034.7
20260509141032 11 95 0.0 0.0 0.05 0.28 0.10 94 1034.6
20260509140531 11 95 0.0 0.0 0.05 0.28 0.10 93 1034.6
20260509140031 11 95 0.0 0.0 0.05 0.28 0.10 94 1034.5
20260509135531 11 95 0.0 0.0 0.05 0.30 0.10 94 1034.7
20260509135033 10 95 0.0 0.0 0.05 0.28 0.08 94 1034.8
20260509134528 10 95 0.0 0.0 0.05 0.28 0.08 94 1034.8
20260509134028 10 95 0.0 0.0 0.05 0.28 0.08 94 1034.9
20260509133529 10 95 0.0 0.0 0.05 0.28 0.08 94 1034.8
20260509133026 10 95 0.0 0.0 0.05 0.28 0.08 94 1034.9
20260509132526 10 95 0.0 0.0 0.05 0.28 0.08 94 1034.9
20260509132029 10 95 0.0 0.0 0.03 0.25 0.05 94 1035.0
20260509131525 10 95 0.0 0.0 0.03 0.25 0.05 94 1034.9
20260509131027 10 95 0.0 0.0 0.03 0.25 0.05 94 1035.0
20260509130524 10 95 0.0 0.0 0.03 0.25 0.05 94 1034.9
20260509130024 10 95 0.0 0.0 0.03 0.25 0.05 94 1034.9
20260509125523 10 96 0.0 0.0 0.03 0.25 0.05 94 1035.1
20260509125023 10 96 0.0 0.0 0.00 0.23 0.03 94 1034.9
20260509124528 10 96 0.0 0.0 0.00 0.23 0.03 95 1034.7
20260509124022 10 96 0.0 0.0 0.00 0.23 0.03 95 1034.8
20260509123522 10 96 0.0 0.0 0.00 0.23 0.03 95 1034.6
20260509123027 10 96 0.0 0.0 0.00 0.23 0.03 95 1034.5
20260509122520 10 97 0.0 0.0 0.00 0.23 0.03 95 1034.4
20260509122019 10 97 0.0 0.0 0.00 0.23 0.03 95 1034.6
20260509121520 10 97 0.0 1.6 0.00 0.23 0.03 95 1034.5
20260509121018 10 97 0.0 1.6 0.00 0.23 0.03 95 1034.7
20260509120519 10 97 0.0 1.6 0.00 0.23 0.03 95 1034.5
20260509120018 10 96 0.0 0.0 0.00 0.23 0.03 95 1034.4
20260509115517 10 96 0.0 0.0 0.00 0.23 0.03 95 1034.5
20260509115022 10 139 0.0 0.0 0.00 0.23 0.03 95 1034.4
20260509114517 9 142 0.0 0.0 0.00 0.23 0.03 95 1034.4
20260509114015 9 142 0.0 0.0 0.00 0.23 0.03 95 1034.4
20260509113515 9 142 0.0 0.0 0.00 0.23 0.03 95 1034.4
20260509113015 9 253 0.0 0.0 0.03 0.23 0.03 95 1034.4
20260509112514 9 254 0.0 1.6 0.03 0.23 0.03 95 1034.4
20260509112013 9 255 0.0 1.6 0.03 0.23 0.03 95 1034.6
20260509111517 9 96 0.0 0.0 0.03 0.23 0.03 95 1034.7
20260509111014 9 96 0.0 0.0 0.03 0.23 0.03 95 1034.7
20260509110511 9 96 0.0 0.0 0.03 0.23 0.03 95 1034.7
20260509110014 9 96 0.0 0.0 0.03 0.23 0.03 95 1034.6
20260509105512 8 96 0.0 0.0 0.03 0.23 0.03 95 1034.7
20260509105011 8 96 0.0 0.0 0.03 0.23 0.03 95 1034.6
20260509104524 8 96 0.0 0.0 0.03 0.23 0.03 95 1034.6
20260509104011 8 96 0.0 0.0 0.03 0.23 0.03 95 1034.8
20260509103510 8 96 0.0 0.0 0.03 0.23 0.03 95 1034.6
20260509103010 8 96 0.0 0.0 0.00 0.20 0.00 95 1034.8
20260509102513 8 96 0.0 0.0 0.00 0.20 0.00 95 1034.7
20260509102010 8 96 0.0 0.0 0.00 0.20 0.00 95 1034.7
20260509101510 8 96 0.0 0.0 0.00 0.20 0.00 95 1034.7
20260509101008 8 96 0.0 0.0 0.00 0.20 0.00 95 1034.8
20260509100508 8 96 0.0 0.0 0.00 0.20 0.00 95 1034.8
20260509100014 8 96 0.0 0.0 0.00 0.20 0.00 95 1034.9
20260509095509 8 101 0.0 0.0 0.00 0.20 0.00 95 1035.0
20260509095009 8 101 0.0 0.0 0.00 0.20 0.00 95 1035.1
20260509094509 8 101 0.0 0.0 0.00 0.20 0.00 95 1034.9
20260509094008 8 143 0.0 0.0 0.00 0.20 0.00 95 1034.9
20260509093510 8 143 0.0 0.0 0.00 0.20 0.00 95 1034.9
20260509093008 8 143 0.0 0.0 0.00 0.20 0.00 94 1035.0
20260509092508 8 151 0.0 0.0 0.00 0.20 0.00 94 1034.8
20260509092007 8 150 0.0 0.0 0.00 0.20 0.00 94 1034.9
20260509091507 8 150 0.0 0.0 0.00 0.20 0.00 94 1034.9
20260509091006 8 150 0.0 0.0 0.00 0.20 0.00 94 1034.9
20260509090507 8 151 0.0 0.0 0.00 0.20 0.00 94 1034.9
20260509090006 8 151 0.0 0.0 0.00 0.20 0.00 94 1034.9
20260509085505 8 150 0.0 0.0 0.00 0.20 0.00 94 1034.9
20260509085004 8 151 0.0 0.0 0.00 0.20 0.00 94 1035.0
20260509084506 8 155 0.0 0.0 0.00 0.20 0.00 94 1035.0
20260509084005 8 155 0.0 0.0 0.00 0.20 0.00 94 1035.0
20260509083503 8 100 0.0 0.0 0.00 0.20 0.00 94 1035.0
20260509083003 8 100 0.0 0.0 0.00 0.20 0.00 94 1035.0
20260509082503 8 99 0.0 0.0 0.00 0.20 0.00 94 1035.1
20260509082002 8 91 0.0 0.0 0.00 0.20 0.00 94 1035.3
20260509081501 8 91 0.0 0.0 0.00 0.20 0.00 94 1035.4
20260509081101 8 91 0.0 0.0 0.00 0.20 0.00 94 1035.4
20260509080559 8 91 0.0 0.0 0.00 0.20 0.00 94 1035.6
20260509075559 9 91 0.0 0.0 0.00 0.20 0.00 94 1035.8
20260509075059 9 91 0.0 0.0 0.00 0.20 0.00 94 1035.7
20260509074658 9 91 0.0 0.0 0.00 0.20 0.00 94 1035.8
20260509074058 9 91 0.0 0.0 0.00 0.20 0.00 94 1035.7
20260509073601 9 91 0.0 0.0 0.00 0.20 0.00 94 1035.7
20260509073106 9 91 0.0 0.0 0.00 0.20 0.00 94 1035.7
20260509072559 9 91 0.0 0.0 0.00 0.20 0.00 94 1035.8
20260509072059 9 91 0.0 0.0 0.00 0.20 0.00 94 1035.6
20260509071556 9 91 0.0 0.0 0.00 0.20 0.00 94 1035.6
20260509071056 9 91 0.0 0.0 0.00 0.20 0.00 94 1035.5
20260509070555 9 91 0.0 0.0 0.00 0.20 0.00 94 1035.6
20260509070057 9 91 0.0 0.0 0.00 0.20 0.00 94 1035.8
20260509065554 9 91 0.0 0.0 0.00 0.20 0.00 94 1035.7
20260509065053 9 91 0.0 0.0 0.00 0.20 0.00 94 1035.9
20260509064553 9 91 0.0 0.0 0.00 0.20 0.00 94 1035.9
20260509064053 9 91 0.0 0.0 0.00 0.20 0.00 94 1036.0
20260509063552 9 91 0.0 0.0 0.00 0.20 0.00 94 1036.1
20260509063059 9 91 0.0 0.0 0.00 0.20 0.00 94 1035.9
20260509062552 9 91 0.0 0.0 0.00 0.20 0.00 94 1035.9
20260509062052 9 91 0.0 0.0 0.00 0.20 0.00 94 1036.0
20260509061606 9 91 0.0 0.0 0.00 0.20 0.00 94 1036.0
20260509061051 9 91 0.0 0.0 0.00 0.20 0.00 94 1036.1
20260509060553 9 87 0.0 0.0 0.00 0.20 0.00 94 1036.3
20260509060051 9 87 0.0 0.0 0.00 0.20 0.00 94 1036.3
20260509055553 9 87 0.0 0.0 0.00 0.20 0.00 94 1036.5
20260509055051 9 87 0.0 0.0 0.00 0.20 0.00 94 1036.5
20260509054558 9 87 0.0 0.0 0.00 0.20 0.00 94 1036.6
20260509054051 9 87 0.0 0.0 0.00 0.20 0.00 94 1036.6
20260509053550 9 87 0.0 0.0 0.00 0.20 0.00 94 1036.8
20260509053059 9 87 0.0 0.0 0.00 0.20 0.00 94 1036.9
20260509052551 9 87 0.0 0.0 0.00 0.20 0.00 94 1037.1
20260509052055 9 87 0.0 0.0 0.00 0.20 0.00 94 1037.1
20260509051552 9 87 0.0 0.0 0.00 0.20 0.00 94 1037.1
20260509051049 9 87 0.0 0.0 0.00 0.20 0.00 94 1036.9
20260509050548 9 87 0.0 0.0 0.00 0.20 0.00 94 1037.0
20260509050050 9 87 0.0 0.0 0.00 0.20 0.00 94 1036.7
20260509045546 9 88 0.0 0.0 0.00 0.25 0.00 94 1036.4
20260509045045 9 88 0.0 0.0 0.00 0.25 0.00 94 1036.3
20260509044550 9 88 0.0 0.0 0.00 0.25 0.00 94 1036.2
20260509044045 9 88 0.0 0.0 0.00 0.25 0.00 94 1036.3
20260509043547 9 88 0.0 0.0 0.00 0.25 0.00 94 1036.4
20260509043044 9 88 0.0 0.0 0.00 0.25 0.00 94 1036.3
20260509042543 9 88 0.0 0.0 0.00 0.25 0.00 94 1036.4
20260509042046 9 88 0.0 0.0 0.00 0.25 0.00 94 1036.1
20260509041543 9 88 0.0 0.0 0.00 0.25 0.00 94 1035.9
20260509041043 9 88 0.0 0.0 0.00 0.25 0.00 94 1035.8
20260509040540 9 88 0.0 0.0 0.00 0.25 0.00 94 1035.9
20260509040042 9 88 0.0 0.0 0.00 0.25 0.00 94 1036.0
20260509035539 9 88 0.0 0.0 0.00 0.25 0.25 94 1036.2
20260509035038 9 88 0.0 0.0 0.00 0.25 0.25 94 1036.3
20260509034539 9 88 0.0 0.0 0.00 0.25 0.25 94 1036.4
20260509034038 9 88 0.0 0.0 0.03 0.25 0.25 94 1036.6
20260509033539 9 88 0.0 0.0 0.03 0.25 0.25 94 1036.5
20260509033039 9 88 0.0 0.0 0.03 0.25 0.25 93 1036.3
20260509032539 9 82 0.0 0.0 0.03 0.25 0.25 93 1036.4
20260509032042 9 82 0.0 0.0 0.03 0.25 0.25 93 1036.5
20260509031538 10 82 0.0 0.0 0.03 0.25 0.25 93 1036.3
20260509031038 10 82 0.0 0.0 0.03 0.25 0.25 93 1036.3
20260509030537 10 82 0.0 0.0 0.03 0.25 0.25 93 1036.4
20260509030038 10 82 0.0 0.0 0.03 0.25 0.25 93 1036.3
20260509025537 10 82 0.0 0.0 0.03 0.25 0.25 94 1036.7
20260509025037 9 82 0.0 0.0 0.03 0.25 0.25 94 1036.6
20260509024537 9 82 0.0 0.0 0.03 0.25 0.25 93 1036.6
20260509024037 9 82 0.0 0.0 0.00 0.23 0.23 93 1036.7
20260509023540 9 82 0.0 0.0 0.00 0.23 0.23 93 1036.9
20260509023039 9 82 0.0 0.0 0.00 0.23 0.23 93 1036.8
20260509022536 9 82 0.0 0.0 0.00 0.23 0.23 93 1036.7
20260509022036 9 82 0.0 0.0 0.00 0.23 0.23 93 1036.5
20260509021536 9 82 0.0 0.0 0.00 0.23 0.23 93 1036.4
20260509021035 9 82 0.0 0.0 0.00 0.23 0.23 93 1036.5
20260509020535 9 82 0.0 0.0 0.00 0.23 0.23 93 1036.4
20260509020038 9 82 0.0 0.0 0.00 0.23 0.23 93 1036.3
20260509015535 9 82 0.0 0.0 0.00 0.23 0.23 93 1036.3
20260509015042 9 82 0.0 0.0 0.00 0.23 0.23 93 1036.2
20260509014536 9 82 0.0 0.0 0.00 0.23 0.23 93 1036.2
20260509014036 9 82 0.0 0.0 0.00 0.23 0.23 92 1036.2
20260509013535 9 82 0.0 0.0 0.00 0.23 0.23 92 1036.2
20260509013035 9 82 0.0 0.0 0.00 0.23 0.23 92 1036.0
20260509012537 9 82 0.0 0.0 0.00 0.23 0.23 92 1036.1
20260509012035 9 82 0.0 0.0 0.00 0.23 0.23 92 1036.2